User: anonymous   Login
Location: Griffin Ranch
(33.6186°N, 110.6622°W)
Time: 09:46:15
(UTC-07:00)
Language:

Cosmos 1812 - Orbit

View from above orbital plane
View from above orbital plane
View from above satellite
View from above satellite

Ground track
Ground track

The orbit data is extracted from the following two-line orbital elements,

1 17295U 87003A   17206.19832174 +.00000821 +00000-0 +42919-4 0  9993
2 17295 082.5154 107.6199 0003915 024.3178 335.8238 15.14523783664486
Epoch (UTC): 25 July 2017 04:45:34
Eccentricity: 0.0003915
inclination: 82.5154°
perigee height: 520 km
apogee height: 525 km
right ascension of ascending node: 107.6199°
argument of perigee: 24.3178°
revolutions per day: 15.14523783
mean anomaly at epoch: 335.8238°
orbit number at epoch: 66448

The dashed part of the orbit path shows where the satellite is in the earth's shadow,  

DLR